Regional Weather Roundup
Issued by NWS

Home | Current Version | Previous Version | Text Only | Print | Product List | Glossary On
Versions: 1 2 3 4 5 6 7 8 9 10 11 12 13 14 15 16 17 18 19 20 21 22 23 24 25 26 27 28 29 30 31 32 33 34 35 36 37 38 39 40 41 42 43 44 45 46 47 48 49 50
000
ASCA44 KEWX 020220
RWRMX

LATIN AMERICA AND CARIBBEAN REGIONAL WEATHER ROUNDUP
NATIONAL WEATHER SERVICE AUSTIN/SAN ANTONIO TX
900 PM CDT SAT AUG 01 2015

NOTE: "FAIR" INDICATED FEW OR NO CLOUDS BELOW 12,000 FEET WITH NO
SIGNIFICANT WEATHER AND/OR OBSTRUCTIONS TO VISIBILITY.

BAJA CALIFORNIA

CITY           SKY/WX    TMP DP  RH WIND       PRES   REMARKS
LORETO           N/A    N/A N/A N/A MISG        N/A
LA PAZ         MOCLDY    91  72  52 S7        29.77F HX  98
MEXICALI       PTCLDY   106  46  13 S5        29.70S HX 102
S.J. DEL CABO  MOCLDY    86  73  66 SE15      29.78R HX  93
TIJUANA        PTCLDY    72  59  64 W13       29.93S

NORTHWESTERN MEXICO

CITY           SKY/WX    TMP DP  RH WIND       PRES   REMARKS
CULIACAN       CLOUDY    91  77  62 S12       29.81R HX 105
DURANGO        CLOUDY    73  54  49 E3        30.17R
GUAYMAS        MOCLDY    99  79  53 CALM      29.69R HX 117
HERMOSILLO     MOCLDY    99  64  32 N13G24    29.79R HX 101
CD. JUAREZ     MOCLDY    91  57  31 E6        29.95F HX  90
LOS MOCHIS     MOCLDY    88  73  62 S9        29.78R HX  96
OBREGON        MOCLDY    91  59  33 NE3       29.71F HX  90

NORTHEASTERN MEXICO

CITY           SKY/WX    TMP DP  RH WIND       PRES   REMARKS
CHIHUAHUA      MOCLDY    82  52  34 SE12G23   30.06R
MATAMOROS      MOCLDY    82  75  78 SE5       29.93R
MONCLOVA         N/A    N/A N/A N/A MISG        N/A
MONTERREY      MOCLDY    88  57  35 E5        29.90R
NUEVO LAREDO     N/A    N/A N/A N/A MISG        N/A
PIEDRAS NEGRAS   N/A    N/A N/A N/A MISG        N/A
REYNOSA        PTCLDY    82  68  61 SE9       29.90R
SALTILLO         N/A    N/A N/A N/A MISG        N/A
TORREON        MOCLDY    88  57  35 N12       29.99R
CD. VICTORIA     N/A    N/A N/A N/A MISG        N/A

WESTERN MEXICO

CITY           SKY/WX    TMP DP  RH WIND       PRES   REMARKS
AGUASCALIENTES CLOUDY    72  48  43 NE9       30.19R
COLIMA           N/A    N/A N/A N/A MISG        N/A
DEL BAJIO      MOCLDY    72  54  53 N12       30.20R
GUADALAJARA    MOCLDY    75  57  53 SW3       30.08R
MANZANILLO     PTCLDY    84  79  84 W6        29.78R HX  96
MAZATLAN       LGT RAIN  77  72  83 NE10      29.84R
P. VALLARTA    MOCLDY    84  75  74 SW6       29.82R HX  92
URUAPAN          N/A    N/A N/A N/A MISG        N/A
ZACATECAS      MOCLDY    66  46  48 CALM      30.23R

CENTRAL MEXICO

CITY           SKY/WX    TMP DP  RH WIND       PRES   REMARKS
CUERNAVACA       N/A    N/A N/A N/A MISG        N/A
MEXICO CITY    CLOUDY    64  54  68 NW12      30.27R
MORELIA        CLOUDY    66  57  72 SW6       30.16S
POZA RICA      CLEAR     82  75  78 E7        29.92R
PUEBLA         LGT RAIN  61  55  82 E6        30.28R
QUERETARO      MOCLDY    68  54  60 NE18      30.22R
S. LUIS POTOSI CLOUDY    64  54  68 NE8       30.24R
TAMPICO        PTCLDY    82  70  65 NE6       29.91R
TOLUCA         TSTM      54  48  82 SE6       30.36R

SOUTHERN MEXICO

CITY           SKY/WX    TMP DP  RH WIND       PRES   REMARKS
ACAPULCO       MOCLDY    84  75  74 W7        29.79R HX  92
B. DE HUATULCO MOCLDY    81  68  65 CALM      29.89R
OAXACA         MOCLDY    73  50  43 N5        30.13R
P. ESCONDIDO   MOCLDY    84  73  70 CALM      29.92R HX  91
VERACRUZ       CLEAR     82  75  78 E6        29.88R
ZIHUATANEJO    MOCLDY    86  73  66 CALM      29.82R HX  93

YUCATAN PENINSULA

CITY           SKY/WX    TMP DP  RH WIND       PRES   REMARKS
CAMPECHE       PTCLDY    79  75  89 NE10      29.88R
CANCUN         PTCLDY    84  77  79 E6        29.96R HX  94
CHETUMAL       PTCLDY    84  75  74 SE6       29.94R HX  92
CD. DEL CARMEN   N/A    N/A N/A N/A MISG        N/A
COZUMEL        PTCLDY    77  73  88 CALM      29.96R
MERIDA         MOCLDY    77  73  88 N5        29.92S
MINATITLAN       N/A    N/A N/A N/A MISG        N/A
TAPACHULA      PTCLDY    82  75  78 CALM      29.85R
TUX. GUTIERREZ MOCLDY    75  68  78 CALM      29.90R
VILLAHERMOSA   CLEAR     86  70  58 NE5       29.87R HX  90

CENTRAL AMERICA

CITY           SKY/WX    TMP DP  RH WIND       PRES   REMARKS
BELIZE CITY    PTCLDY    82  77  83 E9        29.91S HX  91
MANAGUA        PTCLDY    79  75  89 SE5       29.83R

CARIBBEAN

CITY           SKY/WX    TMP DP  RH WIND       PRES   REMARKS
ARUBA          PTCLDY    82  75  78 E21       29.89R
CURACAO        PTCLDY    82  73  74 E13       29.92S
KINGSTON       PTCLDY    84  77  79 E14       29.94S HX  94
NASSAU         PTCLDY    84  73  70 SE8       30.03R HX  91
SAN JUAN       PTCLDY    82  75  78 E13       30.02S
SANTO DOMINGO  PTCLDY    82  72  69 E8        29.97S
ST. CROIX      CLEAR     81  72  74 NE5       30.02
ST. MAARTEN    PTCLDY    82  72  69 E13       30.00S
ST. THOMAS     CLEAR     82  72  69 NE13      30.01

$$



USA.gov is the U.S. government's official web portal to all federal, state and local government web resources and services.